GW0092 Weather Reports


time (UTC)temp
C
wind
direction
speed
KPH
gust
KPH
rain 1hr
cm
rain 24hr
cm
rain mn
cm
humidity
%
barometer
mb
20260902124603 23 316 0.0 4.8 0.00 0.94 0.94 100 1018.1
20260902123059 23 266 0.0 3.2 0.00 0.94 0.94 100 1018.1
20260902121604 23 0 0.0 0.0 0.00 0.94 0.94 100 1018.2
20260902120056 22 0 0.0 0.0 0.00 0.94 0.94 100 1018.4
20260902114604 22 0 0.0 0.0 0.00 0.94 0.94 100 1018.2
20260902113113 22 0 0.0 0.0 0.00 0.94 0.94 100 1018.1
20260902111602 22 0 0.0 0.0 0.00 0.94 0.94 100 1018.0
20260902110057 22 0 0.0 0.0 0.00 0.94 0.94 100 1017.9
20260902104601 22 0 0.0 0.0 0.00 0.94 0.94 100 1017.8
20260902103100 22 0 0.0 0.0 0.00 0.94 0.94 100 1017.7
20260902101607 22 305 0.0 4.8 0.00 0.94 0.94 100 1017.6
20260902100101 22 9 0.0 3.2 0.00 0.94 0.94 100 1017.3
20260902094602 22 295 1.6 3.2 0.00 0.94 0.94 100 1017.0
20260902093057 22 340 0.0 3.2 0.00 0.94 0.94 100 1016.8
20260902091605 22 6 1.6 6.4 0.00 0.94 0.94 100 1016.8
20260902090128 22 0 0.0 1.6 0.00 0.94 0.94 100 1016.5
20260902084603 22 328 0.0 3.2 0.00 0.94 0.94 100 1016.2
20260902083115 22 0 0.0 1.6 0.00 0.94 0.94 99 1016.0
20260902081608 22 0 0.0 0.0 0.00 0.94 0.94 99 1015.9
20260902080111 22 0 0.0 0.0 0.08 0.94 0.94 99 1016.0
20260902074558 22 0 0.0 1.6 0.08 0.94 0.94 99 1016.1
20260902073100 22 0 0.0 3.2 0.08 0.94 0.94 99 1016.1
20260902071602 22 0 0.0 1.6 0.08 0.94 0.94 99 1016.3
20260902070106 22 261 0.0 4.8 0.10 0.86 0.86 99 1017.0
20260902064607 22 0 0.0 1.6 0.71 0.86 0.86 99 1016.6
20260902063102 22 0 0.0 1.6 0.86 0.86 0.86 98 1016.4
20260902061625 22 0 0.0 8.0 0.86 0.86 0.86 98 1016.8
20260902060104 22 157 0.0 8.0 0.76 0.76 0.76 97 1017.4
20260902054604 23 292 3.2 9.7 0.15 0.15 0.15 96 1018.5
20260902053058 23 321 3.2 6.4 0.00 0.00 0.00 94 1018.2
20260902051557 23 0 0.0 1.6 0.00 0.00 0.00 93 1017.5
20260902050107 23 0 0.0 1.6 0.00 0.00 0.00 93 1017.3
20260902044603 23 0 0.0 3.2 0.00 0.00 0.00 92 1017.2
20260902043118 24 0 0.0 8.0 0.00 0.00 0.00 91 1017.2
20260902041609 25 144 3.2 16.1 0.00 0.00 0.00 89 1017.3
20260902040107 26 286 0.0 4.8 0.00 0.00 0.00 88 1017.3
20260902034601 26 308 3.2 17.7 0.00 0.00 0.00 89 1017.0
20260902033114 25 277 8.0 19.3 0.00 0.00 0.00 94 1017.2
20260902031605 25 0 0.0 0.0 0.00 0.00 0.00 96 1015.7
20260902030118 25 0 0.0 0.0 0.00 0.00 0.00 96 1015.4
20260902024601 25 0 0.0 0.0 0.00 0.00 0.00 97 1015.4
20260902023115 25 0 0.0 0.0 0.00 0.00 0.00 97 1015.4
20260902021621 25 0 0.0 0.0 0.00 0.00 0.00 97 1015.3
20260902020104 25 0 0.0 0.0 0.00 0.00 0.00 97 1015.4
20260902014605 25 0 0.0 0.0 0.00 0.00 0.00 97 1014.9
20260902013056 25 0 0.0 0.0 0.00 0.00 0.00 97 1014.6
20260902011602 26 0 0.0 0.0 0.00 0.00 0.00 97 1014.9
20260902004559 26 0 0.0 0.0 0.00 0.00 0.00 97 1014.7
20260902003100 26 0 0.0 0.0 0.00 0.00 0.00 97 1014.2
20260902001604 26 0 0.0 0.0 0.00 0.00 0.00 97 1014.4
20260902000104 26 0 0.0 0.0 0.00 0.00 0.00 96 1014.4
20260901234614 27 0 0.0 0.0 0.00 0.03 0.00 96 1014.4
20260901233100 27 0 0.0 0.0 0.00 0.03 0.00 95 1014.4
20260901231606 27 0 0.0 0.0 0.00 0.03 0.00 94 1014.5
20260901230138 28 0 0.0 1.6 0.00 0.03 0.00 94 1014.5
20260901224601 28 0 0.0 0.0 0.00 0.13 0.00 93 1014.5
20260901223119 28 0 0.0 1.6 0.00 0.13 0.00 93 1014.8
20260901221603 28 129 0.0 1.6 0.00 0.13 0.00 91 1014.9
20260901220108 28 0 0.0 1.6 0.00 0.13 0.00 90 1014.9
20260901214602 29 164 1.6 4.8 0.00 0.28 0.00 88 1014.9
20260901213106 30 0 0.0 3.2 0.00 0.28 0.00 87 1014.9
20260901211603 30 134 1.6 3.2 0.00 0.28 0.00 85 1015.0
20260901210104 30 143 0.0 1.6 0.00 0.28 0.00 88 1015.0
20260901204605 30 0 0.0 3.2 0.00 0.58 0.00 89 1015.2
20260901203120 30 130 1.6 4.8 0.00 0.58 0.00 88 1015.3
20260901201612 29 0 1.6 4.8 0.00 0.58 0.00 90 1015.5
20260901200106 28 154 0.0 3.2 0.00 0.58 0.00 91 1015.6
20260901194605 29 133 0.0 4.8 0.00 0.58 0.00 89 1015.6
20260901193055 30 111 1.6 11.3 0.00 0.58 0.00 87 1015.7
20260901191603 30 118 0.0 4.8 0.00 0.58 0.00 86 1015.6
20260901190112 30 75 0.0 9.7 0.00 0.58 0.00 86 1015.8
20260901184602 30 131 1.6 8.0 0.00 0.58 0.00 87 1016.0
20260901183110 30 107 1.6 8.0 0.00 0.58 0.00 83 1016.0
20260901181604 31 152 0.0 6.4 0.00 0.58 0.00 80 1016.0
20260901180104 31 0 0.0 6.4 0.00 0.58 0.00 78 1015.9
20260901174607 31 0 1.6 9.7 0.00 0.58 0.00 78 1016.0
20260901173131 31 131 0.0 4.8 0.00 0.58 0.00 83 1016.1
20260901171621 30 34 0.0 8.0 0.00 0.58 0.00 78 1016.2
20260901170104 30 0 0.0 3.2 0.00 0.58 0.00 82 1016.4
20260901164633 30 133 0.0 6.4 0.00 0.58 0.00 87 1016.4
20260901163053 30 155 0.0 4.8 0.00 0.58 0.00 83 1016.5
20260901161607 31 174 3.2 6.4 0.00 0.58 0.00 77 1016.6
20260901160105 31 102 1.6 4.8 0.00 0.58 0.00 78 1016.7
20260901154600 30 8 3.2 8.0 0.00 0.58 0.00 76 1016.8
20260901153059 30 0 1.6 6.4 0.00 0.58 0.00 78 1017.1
20260901151555 30 143 0.0 4.8 0.00 0.58 0.00 81 1017.3
20260901144600 29 0 0.0 4.8 0.00 0.58 0.00 88 1017.4
20260901143100 28 347 1.6 8.0 0.00 0.58 0.00 86 1017.5
20260901141609 28 44 1.6 6.4 0.00 0.58 0.00 88 1017.6
20260901140056 27 292 1.6 6.4 0.00 0.58 0.00 91 1017.5
20260901134604 26 0 1.6 6.4 0.00 0.58 0.00 95 1017.4
20260901133104 26 339 3.2 6.4 0.00 0.58 0.00 97 1017.6
20260901131603 25 342 0.0 6.4 0.00 0.58 0.00 100 1017.6
20260901130106 25 359 1.6 4.8 0.00 0.58 0.00 100 1017.6